Time,TemperatureF,DewpointF,PressureIn,WindDirection,WindDirectionDegrees,WindSpeedMPH,WindSpeedGustMPH,Humidity,HourlyPrecipIn,Conditions,Clouds,dailyrainin,SoftwareType,DateUTC
2013-04-01 00:00:00,39.4,29.4,29.98,NW,315,5.0,14.0,67,0.00,,RA,0.00,VWS V14.01,2013-04-01 05:00:00,
2013-04-01 00:10:00,39.0,29.4,29.98,NW,315,4.0,9.0,68,0.00,,RA,0.00,VWS V14.01,2013-04-01 05:10:00,
2013-04-01 00:20:00,38.5,28.5,29.98,NW,315,4.0,9.0,67,0.00,,RA,0.00,VWS V14.01,2013-04-01 05:20:00,
2013-04-01 00:30:00,38.2,28.2,29.99,NW,315,4.0,11.0,67,0.00,,RA,0.00,VWS V14.01,2013-04-01 05:30:00,
2013-04-01 00:40:00,37.9,27.9,30.00,NW,315,4.0,17.0,67,0.00,,RA,0.00,VWS V14.01,2013-04-01 05:40:00,
2013-04-01 00:50:00,37.7,27.8,30.00,NW,315,4.0,17.0,67,0.00,,RA,0.00,VWS V14.01,2013-04-01 05:50:00,
2013-04-01 01:00:00,37.6,26.5,30.00,NW,315,4.0,9.0,64,0.00,,RA,0.00,VWS V14.01,2013-04-01 06:00:00,
2013-04-01 01:10:00,37.5,26.1,30.01,NW,315,5.0,13.0,63,0.00,,RA,0.00,VWS V14.01,2013-04-01 06:10:00,
2013-04-01 01:20:00,37.3,25.1,30.00,NW,315,4.0,11.0,61,0.00,,RA,0.00,VWS V14.01,2013-04-01 06:20:00,
2013-04-01 01:30:00,37.1,24.9,30.01,NW,315,4.0,9.0,61,0.00,,RA,0.00,VWS V14.01,2013-04-01 06:30:00,
2013-04-01 01:40:00,37.0,25.2,30.01,NW,315,4.0,10.0,62,0.00,,RA,0.00,VWS V14.01,2013-04-01 06:40:00,
2013-04-01 01:50:00,36.7,26.1,30.01,NW,315,4.0,10.0,65,0.00,,RA,0.00,VWS V14.01,2013-04-01 06:50:00,
2013-04-01 02:00:00,36.4,25.8,30.02,NW,315,3.0,10.0,65,0.00,,RA,0.00,VWS V14.01,2013-04-01 07:00:00,
2013-04-01 02:10:00,36.0,25.4,30.02,NW,315,5.0,10.0,65,0.00,,RA,0.00,VWS V14.01,2013-04-01 07:10:00,
2013-04-01 02:20:00,35.7,25.5,30.03,NW,315,5.0,9.0,66,0.00,,RA,0.00,VWS V14.01,2013-04-01 07:20:00,
2013-04-01 02:30:00,35.3,25.1,30.03,NW,315,4.0,9.0,66,0.00,,RA,0.00,VWS V14.01,2013-04-01 07:30:00,
2013-04-01 02:40:00,35.1,25.3,30.04,NW,315,5.0,10.0,67,0.00,,RA,0.00,VWS V14.01,2013-04-01 07:40:00,
2013-04-01 02:50:00,34.8,25.0,30.04,NW,315,4.0,10.0,67,0.00,,RA,0.00,VWS V14.01,2013-04-01 07:50:00,
2013-04-01 03:00:00,34.6,25.1,30.04,NW,315,4.0,11.0,68,0.00,,RA,0.00,VWS V14.01,2013-04-01 08:00:00,
2013-04-01 03:10:00,34.4,25.3,30.05,NW,315,4.0,10.0,69,0.00,,RA,0.00,VWS V14.01,2013-04-01 08:10:00,
2013-04-01 03:20:00,34.2,25.5,30.05,NW,315,4.0,10.0,70,0.00,,RA,0.00,VWS V14.01,2013-04-01 08:20:00,
2013-04-01 03:30:00,34.0,25.3,30.05,NW,315,4.0,9.0,70,0.00,,RA,0.00,VWS V14.01,2013-04-01 08:30:00,
2013-04-01 03:40:00,33.8,25.4,30.05,NW,315,4.0,13.0,71,0.00,,RA,0.00,VWS V14.01,2013-04-01 08:40:00,
2013-04-01 03:50:00,33.7,25.3,30.06,NW,315,4.0,10.0,71,0.00,,RA,0.00,VWS V14.01,2013-04-01 08:50:00,
2013-04-01 04:00:00,33.5,25.1,30.06,NW,315,4.0,9.0,71,0.00,,RA,0.00,VWS V14.01,2013-04-01 09:00:00,
2013-04-01 04:10:00,33.2,25.2,30.06,NW,315,4.0,9.0,72,0.00,,RA,0.00,VWS V14.01,2013-04-01 09:10:00,
2013-04-01 04:20:00,32.7,25.0,30.07,NW,315,3.0,8.0,73,0.00,,RA,0.00,VWS V14.01,2013-04-01 09:20:00,
2013-04-01 04:30:00,32.4,25.0,30.07,NW,315,4.0,10.0,74,0.00,,RA,0.00,VWS V14.01,2013-04-01 09:30:00,
2013-04-01 04:40:00,32.0,25.0,30.07,NW,315,4.0,8.0,75,0.00,,RA,0.00,VWS V14.01,2013-04-01 09:40:00,
2013-04-01 04:50:00,31.7,25.0,30.07,NW,315,3.0,8.0,76,0.00,,RA,0.00,VWS V14.01,2013-04-01 09:50:00,
2013-04-01 05:00:00,31.3,24.9,30.08,NW,315,3.0,6.0,77,0.00,,RA,0.00,VWS V14.01,2013-04-01 10:00:00,
2013-04-01 05:10:00,31.0,24.6,30.08,NW,315,4.0,10.0,77,0.00,,RA,0.00,VWS V14.01,2013-04-01 10:10:00,
2013-04-01 05:20:00,30.8,24.8,30.08,NW,315,3.0,9.0,78,0.00,,RA,0.00,VWS V14.01,2013-04-01 10:20:00,
2013-04-01 05:30:00,30.6,24.6,30.09,NW,315,4.0,9.0,78,0.00,,RA,0.00,VWS V14.01,2013-04-01 10:30:00,
2013-04-01 05:40:00,30.4,24.7,30.09,NW,315,3.0,6.0,79,0.00,,RA,0.00,VWS V14.01,2013-04-01 10:40:00,
2013-04-01 05:50:00,30.2,24.5,30.10,NW,315,3.0,9.0,79,0.00,,RA,0.00,VWS V14.01,2013-04-01 10:50:00,
2013-04-01 06:00:00,30.0,24.6,30.10,NW,315,3.0,6.0,80,0.00,,RA,0.00,VWS V14.01,2013-04-01 11:00:00,
2013-04-01 06:10:00,29.9,24.5,30.10,NW,315,3.0,7.0,80,0.00,,RA,0.00,VWS V14.01,2013-04-01 11:10:00,
2013-04-01 06:20:00,29.7,24.3,30.11,NW,315,3.0,6.0,80,0.00,,RA,0.00,VWS V14.01,2013-04-01 11:20:00,
2013-04-01 06:30:00,29.6,24.2,30.11,NW,315,3.0,6.0,80,0.00,,RA,0.00,VWS V14.01,2013-04-01 11:30:00,
2013-04-01 06:40:00,29.5,24.4,30.12,NW,315,3.0,5.0,81,0.00,,RA,0.00,VWS V14.01,2013-04-01 11:40:00,
2013-04-01 06:50:00,29.4,24.3,30.13,NW,315,2.0,6.0,81,0.00,,RA,0.00,VWS V14.01,2013-04-01 11:50:00,
2013-04-01 07:00:00,29.2,24.1,30.13,NW,315,2.0,5.0,81,0.00,,RA,0.00,VWS V14.01,2013-04-01 12:00:00,
2013-04-01 07:10:00,29.2,24.1,30.14,NW,315,3.0,11.0,81,0.00,,RA,0.00,VWS V14.01,2013-04-01 12:10:00,
2013-04-01 07:20:00,29.3,24.2,30.15,NW,315,3.0,8.0,81,0.00,,RA,0.00,VWS V14.01,2013-04-01 12:20:00,
2013-04-01 07:30:00,29.7,24.3,30.15,NW,315,2.0,6.0,80,0.00,,RA,0.00,VWS V14.01,2013-04-01 12:30:00,
2013-04-01 07:40:00,30.2,24.5,30.16,NW,315,3.0,7.0,79,0.00,,RA,0.00,VWS V14.01,2013-04-01 12:40:00,
2013-04-01 07:50:00,30.8,24.8,30.16,NW,315,2.0,6.0,78,0.00,,RA,0.00,VWS V14.01,2013-04-01 12:50:00,
2013-04-01 08:00:00,31.0,24.6,30.16,NW,315,4.0,8.0,77,0.00,,RA,0.00,VWS V14.01,2013-04-01 13:00:00,
2013-04-01 08:10:00,31.5,24.8,30.17,NW,315,3.0,6.0,76,0.00,,RA,0.00,VWS V14.01,2013-04-01 13:10:00,
2013-04-01 08:20:00,31.9,24.6,30.17,NW,315,3.0,9.0,74,0.00,,RA,0.00,VWS V14.01,2013-04-01 13:20:00,
2013-04-01 08:30:00,32.0,24.0,30.17,NW,315,4.0,9.0,72,0.00,,RA,0.00,VWS V14.01,2013-04-01 13:30:00,
2013-04-01 08:40:00,32.5,24.2,30.18,NW,315,3.0,6.0,71,0.00,,RA,0.00,VWS V14.01,2013-04-01 13:40:00,
2013-04-01 08:50:00,32.6,23.9,30.18,NW,315,4.0,9.0,70,0.00,,RA,0.00,VWS V14.01,2013-04-01 13:50:00,
2013-04-01 09:00:00,32.9,23.9,30.18,NW,315,4.0,12.0,69,0.00,,RA,0.00,VWS V14.01,2013-04-01 14:00:00,
2013-04-01 09:10:00,33.3,23.5,30.19,NW,315,4.0,10.0,67,0.00,,RA,0.00,VWS V14.01,2013-04-01 14:10:00,
2013-04-01 09:20:00,33.6,23.1,30.19,NW,315,4.0,9.0,65,0.00,,RA,0.00,VWS V14.01,2013-04-01 14:20:00,
2013-04-01 09:30:00,34.1,22.5,30.19,NNW,338,3.0,8.0,62,0.00,,RA,0.00,VWS V14.01,2013-04-01 14:30:00,
2013-04-01 09:40:00,34.3,21.9,30.20,NW,315,4.0,10.0,60,0.00,,RA,0.00,VWS V14.01,2013-04-01 14:40:00,
2013-04-01 09:50:00,34.7,22.2,30.20,NW,315,4.0,8.0,60,0.00,,RA,0.00,VWS V14.01,2013-04-01 14:50:00,
2013-04-01 10:00:00,34.3,20.2,30.20,WNW,292,5.0,12.0,56,0.00,,RA,0.00,VWS V14.01,2013-04-01 15:00:00,
2013-04-01 10:10:00,35.2,21.1,30.20,NW,315,4.0,11.0,56,0.00,,RA,0.00,VWS V14.01,2013-04-01 15:10:00,
2013-04-01 10:20:00,35.5,21.0,30.20,NW,315,3.0,8.0,55,0.00,,RA,0.00,VWS V14.01,2013-04-01 15:20:00,
2013-04-01 10:30:00,35.7,20.7,30.20,NW,315,4.0,9.0,54,0.00,,RA,0.00,VWS V14.01,2013-04-01 15:30:00,
2013-04-01 10:40:00,36.7,21.2,30.21,NW,315,4.0,14.0,53,0.00,,RA,0.00,VWS V14.01,2013-04-01 15:40:00,
2013-04-01 10:50:00,36.0,20.1,30.21,NW,315,5.0,11.0,52,0.00,,RA,0.00,VWS V14.01,2013-04-01 15:50:00,
2013-04-01 11:00:00,36.3,19.9,30.22,NW,315,5.0,12.0,51,0.00,,RA,0.00,VWS V14.01,2013-04-01 16:00:00,
2013-04-01 11:10:00,36.9,20.0,30.21,NW,315,6.0,11.0,50,0.00,,RA,0.00,VWS V14.01,2013-04-01 16:10:00,
2013-04-01 11:20:00,36.9,20.0,30.21,NW,315,5.0,11.0,50,0.00,,RA,0.00,VWS V14.01,2013-04-01 16:20:00,
2013-04-01 11:30:00,37.6,20.2,30.21,NW,315,4.0,9.0,49,0.00,,RA,0.00,VWS V14.01,2013-04-01 16:30:00,
2013-04-01 11:40:00,37.7,19.3,30.21,NW,315,4.0,12.0,47,0.00,,RA,0.00,VWS V14.01,2013-04-01 16:40:00,
2013-04-01 11:50:00,38.1,19.7,30.21,NW,315,4.0,9.0,47,0.00,,RA,0.00,VWS V14.01,2013-04-01 16:50:00,
2013-04-01 12:00:00,37.8,19.4,30.22,NW,315,5.0,10.0,47,0.00,,RA,0.00,VWS V14.01,2013-04-01 17:00:00,
2013-04-01 12:10:00,38.3,17.8,30.22,NW,315,5.0,12.0,43,0.00,,RA,0.00,VWS V14.01,2013-04-01 17:10:00,
2013-04-01 12:20:00,38.5,19.0,30.22,NW,315,5.0,11.0,45,0.00,,RA,0.00,VWS V14.01,2013-04-01 17:20:00,
2013-04-01 12:30:00,39.2,20.2,30.22,NW,315,4.0,11.0,46,0.00,,RA,0.00,VWS V14.01,2013-04-01 17:30:00,
2013-04-01 12:40:00,38.9,17.8,30.21,NW,315,6.0,13.0,42,0.00,,RA,0.00,VWS V14.01,2013-04-01 17:40:00,
2013-04-01 12:50:00,39.7,19.0,30.21,NW,315,4.0,8.0,43,0.00,,RA,0.00,VWS V14.01,2013-04-01 17:50:00,
2013-04-01 13:00:00,39.6,20.0,30.21,NW,315,5.0,12.0,45,0.00,,SCT050,0.00,VWS V14.01,2013-04-01 18:00:00,
2013-04-01 13:10:00,39.3,18.7,30.21,NW,315,5.0,12.0,43,0.00,,RA,0.00,VWS V14.01,2013-04-01 18:10:00,
2013-04-01 13:20:00,39.5,17.8,30.21,NW,315,6.0,12.0,41,0.00,,RA,0.00,VWS V14.01,2013-04-01 18:20:00,
2013-04-01 13:30:00,40.4,19.1,30.21,WNW,292,3.0,8.0,42,0.00,,RA,0.00,VWS V14.01,2013-04-01 18:30:00,
2013-04-01 13:40:00,40.7,18.9,30.21,NNE,22,5.0,12.0,41,0.00,,RA,0.00,VWS V14.01,2013-04-01 18:40:00,
2013-04-01 13:50:00,40.4,17.4,30.21,NW,315,5.0,13.0,39,0.00,,RA,0.00,VWS V14.01,2013-04-01 18:50:00,
2013-04-01 14:00:00,40.7,19.4,30.21,NW,315,4.0,10.0,42,0.00,,RA,0.00,VWS V14.01,2013-04-01 19:00:00,
2013-04-01 14:10:00,41.4,19.5,30.21,NW,315,4.0,9.0,41,0.00,,RA,0.00,VWS V14.01,2013-04-01 19:10:00,
2013-04-01 14:20:00,41.2,18.1,30.20,NW,315,5.0,9.0,39,0.00,,RA,0.00,VWS V14.01,2013-04-01 19:20:00,
2013-04-01 14:30:00,41.0,18.0,30.20,NW,315,6.0,11.0,39,0.00,,RA,0.00,VWS V14.01,2013-04-01 19:30:00,
2013-04-01 14:40:00,41.0,18.0,30.20,NW,315,6.0,14.0,39,0.00,,RA,0.00,VWS V14.01,2013-04-01 19:40:00,
2013-04-01 14:50:00,41.7,19.2,30.20,NW,315,5.0,9.0,40,0.00,,RA,0.00,VWS V14.01,2013-04-01 19:50:00,
2013-04-01 15:00:00,41.4,18.9,30.20,NW,315,7.0,15.0,40,0.00,,RA,0.00,VWS V14.01,2013-04-01 20:00:00,
2013-04-01 15:10:00,41.5,18.4,30.20,NW,315,5.0,14.0,39,0.00,,RA,0.00,VWS V14.01,2013-04-01 20:10:00,
2013-04-01 15:20:00,41.7,18.6,30.20,NNE,22,4.0,11.0,39,0.00,,RA,0.00,VWS V14.01,2013-04-01 20:20:00,
2013-04-01 15:30:00,42.0,18.9,30.20,NW,315,4.0,11.0,39,0.00,,RA,0.00,VWS V14.01,2013-04-01 20:30:00,
2013-04-01 15:40:00,41.7,18.0,30.20,NW,315,5.0,11.0,38,0.00,,RA,0.00,VWS V14.01,2013-04-01 20:40:00,
2013-04-01 15:50:00,41.9,18.8,30.20,NW,315,4.0,13.0,39,0.00,,RA,0.00,VWS V14.01,2013-04-01 20:50:00,
2013-04-01 16:00:00,41.3,17.0,30.20,NW,315,6.0,12.0,37,0.00,,RA,0.00,VWS V14.01,2013-04-01 21:00:00,
2013-04-01 16:10:00,41.0,17.4,30.20,NW,315,6.0,14.0,38,0.00,,RA,0.00,VWS V14.01,2013-04-01 21:10:00,
2013-04-01 16:20:00,41.6,19.1,30.20,NW,315,4.0,11.0,40,0.00,,RA,0.00,VWS V14.01,2013-04-01 21:20:00,
2013-04-01 16:30:00,41.1,18.0,30.20,NW,315,5.0,12.0,39,0.00,,RA,0.00,VWS V14.01,2013-04-01 21:30:00,
2013-04-01 16:40:00,41.5,19.0,30.20,NW,315,5.0,12.0,40,0.00,,RA,0.00,VWS V14.01,2013-04-01 21:40:00,
2013-04-01 16:50:00,41.2,18.1,30.20,NW,315,5.0,12.0,39,0.00,,RA,0.00,VWS V14.01,2013-04-01 21:50:00,
2013-04-01 17:00:00,40.8,17.8,30.20,NW,315,6.0,13.0,39,0.00,,RA,0.00,VWS V14.01,2013-04-01 22:00:00,
2013-04-01 17:10:00,41.0,17.4,30.20,NW,315,5.0,9.0,38,0.00,,RA,0.00,VWS V14.01,2013-04-01 22:10:00,
2013-04-01 17:20:00,40.8,17.8,30.21,NW,315,6.0,12.0,39,0.00,,RA,0.00,VWS V14.01,2013-04-01 22:20:00,
2013-04-01 17:30:00,40.8,17.8,30.21,NW,315,5.0,10.0,39,0.00,,RA,0.00,VWS V14.01,2013-04-01 22:30:00,
2013-04-01 17:40:00,40.7,18.3,30.21,NW,315,5.0,10.0,40,0.00,,RA,0.00,VWS V14.01,2013-04-01 22:40:00,
2013-04-01 17:50:00,40.9,18.5,30.21,NW,315,4.0,9.0,40,0.00,,RA,0.00,VWS V14.01,2013-04-01 22:50:00,
2013-04-01 18:00:00,40.5,18.1,30.21,NW,315,5.0,12.0,40,0.00,,RA,0.00,VWS V14.01,2013-04-01 23:00:00,
2013-04-01 18:10:00,40.1,18.3,30.21,NW,315,5.0,10.0,41,0.00,,RA,0.00,VWS V14.01,2013-04-01 23:10:00,
2013-04-01 18:20:00,40.0,18.2,30.22,NW,315,4.0,10.0,41,0.00,,RA,0.00,VWS V14.01,2013-04-01 23:20:00,
2013-04-01 18:30:00,39.5,17.8,30.22,NW,315,5.0,11.0,41,0.00,,RA,0.00,VWS V14.01,2013-04-01 23:30:00,
2013-04-01 18:40:00,39.1,18.0,30.21,NW,315,4.0,11.0,42,0.00,,RA,0.00,VWS V14.01,2013-04-01 23:40:00,
2013-04-01 18:50:00,38.8,18.2,30.22,NW,315,5.0,12.0,43,0.00,,RA,0.00,VWS V14.01,2013-04-01 23:50:00,
2013-04-01 19:00:00,38.5,18.5,30.22,NW,315,4.0,8.0,44,0.00,,RA,0.00,VWS V14.01,2013-04-02 00:00:00,
2013-04-01 19:10:00,38.1,18.6,30.22,NW,315,4.0,10.0,45,0.00,,RA,0.00,VWS V14.01,2013-04-02 00:10:00,
2013-04-01 19:20:00,37.7,18.3,30.22,NW,315,4.0,9.0,45,0.00,,RA,0.00,VWS V14.01,2013-04-02 00:20:00,
2013-04-01 19:30:00,37.4,18.5,30.22,NW,315,4.0,8.0,46,0.00,,RA,0.00,VWS V14.01,2013-04-02 00:30:00,
2013-04-01 19:40:00,37.1,18.8,30.22,NW,315,4.0,9.0,47,0.00,,RA,0.00,VWS V14.01,2013-04-02 00:40:00,
2013-04-01 19:50:00,36.8,18.5,30.22,NW,315,3.0,7.0,47,0.00,,RA,0.00,VWS V14.01,2013-04-02 00:50:00,
2013-04-01 20:00:00,36.5,19.2,30.23,NW,315,3.0,10.0,49,0.00,,RA,0.00,VWS V14.01,2013-04-02 01:00:00,
2013-04-01 20:10:00,36.1,19.3,30.23,NW,315,2.0,4.0,50,0.00,,RA,0.00,VWS V14.01,2013-04-02 01:10:00,
2013-04-01 20:20:00,35.8,19.5,30.23,NW,315,2.0,6.0,51,0.00,,RA,0.00,VWS V14.01,2013-04-02 01:20:00,
2013-04-01 20:30:00,35.5,19.6,30.23,NW,315,2.0,5.0,52,0.00,,RA,0.00,VWS V14.01,2013-04-02 01:30:00,
2013-04-01 20:40:00,35.2,19.8,30.24,NW,315,2.0,5.0,53,0.00,,RA,0.00,VWS V14.01,2013-04-02 01:40:00,
2013-04-01 20:50:00,34.9,20.4,30.24,NW,315,2.0,5.0,55,0.00,,RA,0.00,VWS V14.01,2013-04-02 01:50:00,
2013-04-01 21:00:00,34.5,20.0,30.24,NW,315,1.0,4.0,55,0.00,,RA,0.00,VWS V14.01,2013-04-02 02:00:00,
2013-04-01 21:10:00,34.3,20.2,30.25,NW,315,1.0,4.0,56,0.00,,RA,0.00,VWS V14.01,2013-04-02 02:10:00,
2013-04-01 21:20:00,34.0,20.0,30.25,NW,315,2.0,4.0,56,0.00,,RA,0.00,VWS V14.01,2013-04-02 02:20:00,
2013-04-01 21:30:00,33.8,20.2,30.25,NW,315,2.0,4.0,57,0.00,,RA,0.00,VWS V14.01,2013-04-02 02:30:00,
2013-04-01 21:40:00,33.5,19.9,30.25,NW,315,2.0,4.0,57,0.00,,RA,0.00,VWS V14.01,2013-04-02 02:40:00,
2013-04-01 21:50:00,33.2,20.0,30.26,NW,315,2.0,6.0,58,0.00,,RA,0.00,VWS V14.01,2013-04-02 02:50:00,
2013-04-01 22:00:00,32.9,20.2,30.26,NW,315,2.0,6.0,59,0.00,,RA,0.00,VWS V14.01,2013-04-02 03:00:00,
2013-04-01 22:10:00,32.7,20.0,30.26,NW,315,2.0,8.0,59,0.00,,RA,0.00,VWS V14.01,2013-04-02 03:10:00,
2013-04-01 22:20:00,32.4,20.1,30.26,NW,315,2.0,6.0,60,0.00,,RA,0.00,VWS V14.01,2013-04-02 03:20:00,
2013-04-01 22:30:00,32.2,19.9,30.26,NW,315,2.0,6.0,60,0.00,,RA,0.00,VWS V14.01,2013-04-02 03:30:00,
2013-04-01 22:40:00,31.9,20.0,30.27,NW,315,2.0,4.0,61,0.00,,RA,0.00,VWS V14.01,2013-04-02 03:40:00,
2013-04-01 22:50:00,31.6,19.7,30.27,NW,315,2.0,5.0,61,0.00,,RA,0.00,VWS V14.01,2013-04-02 03:50:00,
2013-04-01 23:00:00,31.4,19.5,30.27,NW,315,2.0,4.0,61,0.00,,RA,0.00,VWS V14.01,2013-04-02 04:00:00,
2013-04-01 23:10:00,31.1,19.6,30.27,NW,315,2.0,6.0,62,0.00,,RA,0.00,VWS V14.01,2013-04-02 04:10:00,
2013-04-01 23:20:00,30.8,19.7,30.27,NW,315,2.0,6.0,63,0.00,,RA,0.00,VWS V14.01,2013-04-02 04:20:00,
2013-04-01 23:30:00,30.6,19.5,30.27,NW,315,2.0,6.0,63,0.00,,RA,0.00,VWS V14.01,2013-04-02 04:30:00,
2013-04-01 23:40:00,30.4,19.7,30.27,NW,315,2.0,5.0,64,0.00,,RA,0.00,VWS V14.01,2013-04-02 04:40:00,
2013-04-01 23:50:00,30.1,19.8,30.27,NNW,338,1.0,3.0,65,0.00,,RA,0.00,VWS V14.01,2013-04-02 04:50:00,